Weather reports worldwide

Advertisment
Levens Hall, United Kingdom (99172): temperature & dewpoint: 12.09.2019 04:00:00 - 18.09.2019 04:00:00 (BST)Levens Hall, United Kingdom (99172): precipitation: 12.09.2019 04:00:00 - 18.09.2019 04:00:00 (BST)
Date & Time tt [°C] td [°C] rr [mm]
18.09.2019 04:00:00 5,6 4,9 0,0
18.09.2019 03:00:00 4,9 4,1 0,0
18.09.2019 02:00:00 5,7 5,0 0,0
18.09.2019 01:00:00 5,8 5,0 0,0
18.09.2019 00:00:00 6,2 5,2 0,0
17.09.2019 23:00:00 7,0 5,6 0,0
17.09.2019 22:00:00 7,9 6,5 0,0
17.09.2019 21:00:00 8,8 6,9 0,0
17.09.2019 20:00:00 9,8 6,6 0,0
17.09.2019 19:00:00 13,9 5,8 0,0
17.09.2019 18:00:00 16,5 5,2 0,0
17.09.2019 17:00:00 16,9 4,2 0,0
17.09.2019 16:00:00 17,3 4,3 0,0
17.09.2019 15:00:00 17,6 5,6 0,0
17.09.2019 14:00:00 17,0 5,4 0,0
17.09.2019 13:00:00 16,3 6,4 0,0
17.09.2019 12:00:00 15,5 7,7 0,0
17.09.2019 11:00:00 14,8 8,8 0,0
17.09.2019 10:00:00 12,4 11,0 0,0
17.09.2019 09:00:00 7,6 7,6 0,0
17.09.2019 08:00:00 5,4 5,2 0,2
17.09.2019 07:00:00 5,2 5,0 0,0
17.09.2019 06:00:00 5,1 5,0 0,0
17.09.2019 05:00:00 5,0 4,7 0,0
17.09.2019 04:00:00 5,0 4,7 0,0
17.09.2019 03:00:00 5,5 5,2 0,0
17.09.2019 02:00:00 5,8 5,4 0,0
17.09.2019 01:00:00 6,4 6,0 0,0
17.09.2019 00:00:00 6,7 6,2 0,0
16.09.2019 23:00:00 7,7 6,9 0,0
16.09.2019 22:00:00 8,4 7,1 0,0
16.09.2019 21:00:00 9,9 7,8 0,0
16.09.2019 20:00:00 11,0 8,5 0,0
16.09.2019 19:00:00 13,9 9,2 0,0
16.09.2019 18:00:00 15,2 8,2 0,0
16.09.2019 17:00:00 16,3 8,3 0,0
16.09.2019 16:00:00 16,5 8,9 0,0
16.09.2019 15:00:00 17,6 8,4 0,0
16.09.2019 14:00:00 17,3 9,2 0,0
16.09.2019 13:00:00 15,9 7,0 0,0
16.09.2019 12:00:00 15,6 9,5 0,0
16.09.2019 11:00:00 13,6 7,8 0,0
16.09.2019 10:00:00 11,6 10,1 0,0
16.09.2019 09:00:00 9,0 8,5 0,0
16.09.2019 08:00:00 7,6 7,3 0,0
16.09.2019 07:00:00 7,2 6,9 0,0
16.09.2019 06:00:00 7,2 6,9 0,0
16.09.2019 05:00:00 7,8 7,4 0,0
16.09.2019 04:00:00 8,9 8,3 0,0
16.09.2019 03:00:00 10,0 9,4 0,0
16.09.2019 02:00:00 10,6 9,9 0,0
16.09.2019 01:00:00 11,3 10,5 0,0
16.09.2019 00:00:00 11,2 10,5 0,0
15.09.2019 23:00:00 11,2 10,1 0,0
15.09.2019 22:00:00 11,4 10,2 0,0
15.09.2019 21:00:00 11,8 10,2 0,0
15.09.2019 20:00:00 12,1 10,0 0,0
15.09.2019 19:00:00 12,6 9,8 0,0
15.09.2019 18:00:00 13,5 8,5 0,0
15.09.2019 17:00:00 14,6 10,2 0,0
15.09.2019 16:00:00 14,7 10,0 0,0
15.09.2019 15:00:00 14,7 10,8 0,0
15.09.2019 14:00:00 14,7 9,7 0,0
15.09.2019 13:00:00 15,4 9,5 0,0
15.09.2019 12:00:00 15,2 9,5 0,0
15.09.2019 11:00:00 14,9 9,8 0,0
15.09.2019 10:00:00 14,4 11,5 0,0
15.09.2019 09:00:00 14,2 11,3 0,0
15.09.2019 08:00:00 13,4 11,0 0,0
15.09.2019 07:00:00 13,7 11,2 0,0
15.09.2019 06:00:00 14,4 12,0 0,0
15.09.2019 05:00:00 15,9 13,9 0,0
15.09.2019 04:00:00 15,8 13,6 0,0
15.09.2019 03:00:00 16,0 13,3 0,0
15.09.2019 02:00:00 15,7 13,4 0,0
15.09.2019 01:00:00 15,7 13,4 0,0
15.09.2019 00:00:00 15,5 13,2 0,0
14.09.2019 23:00:00 15,3 13,0 0,0
14.09.2019 22:00:00 15,0 12,4 0,0
14.09.2019 21:00:00 14,6 11,8 0,0
14.09.2019 20:00:00 15,1 12,2 0,0
14.09.2019 19:00:00 15,7 13,1 0,0
14.09.2019 18:00:00 16,2 12,4 0,0
14.09.2019 17:00:00 17,2 12,4 0,0
14.09.2019 16:00:00 17,6 12,6 0,0
14.09.2019 15:00:00 17,7 12,9 0,0
14.09.2019 14:00:00 17,0 12,3 0,0
14.09.2019 13:00:00 15,6 11,6 0,0
14.09.2019 12:00:00 15,4 11,5 0,0
14.09.2019 11:00:00 12,9 10,2 0,0
14.09.2019 10:00:00 10,9 9,7 0,0
14.09.2019 09:00:00 7,9 7,9 0,0
14.09.2019 08:00:00 5,2 5,2 0,0
14.09.2019 07:00:00 4,5 4,3 0,0
14.09.2019 06:00:00 4,8 4,6 0,0
14.09.2019 05:00:00 5,1 4,8 0,0
14.09.2019 04:00:00 5,3 5,1 0,0
14.09.2019 03:00:00 5,8 5,6 0,0
14.09.2019 02:00:00 5,9 5,6 0,0
14.09.2019 01:00:00 6,5 6,2 0,0
14.09.2019 00:00:00 6,9 6,5 0,0
13.09.2019 23:00:00 7,5 6,9 0,0
13.09.2019 22:00:00 8,3 7,7 0,0
13.09.2019 21:00:00 9,1 7,8 0,0
13.09.2019 20:00:00 10,8 8,5 0,0
13.09.2019 19:00:00 13,4 8,4 0,0
13.09.2019 18:00:00 15,2 7,5 0,0
13.09.2019 17:00:00 16,1 8,1 0,0
13.09.2019 16:00:00 16,1 8,8 0,0
13.09.2019 15:00:00 16,4 8,4 0,0
13.09.2019 14:00:00 15,5 9,4 0,0
13.09.2019 13:00:00 15,5 9,5 0,0
13.09.2019 12:00:00 14,8 11,4 0,0
13.09.2019 11:00:00 12,0 10,6 0,0
13.09.2019 10:00:00 9,9 9,6 0,2
13.09.2019 09:00:00 7,6 7,6 0,0
13.09.2019 08:00:00 5,7 5,5 0,0
13.09.2019 07:00:00 5,0 4,8 0,0
13.09.2019 06:00:00 5,5 5,3 0,0
13.09.2019 05:00:00 5,9 5,8 0,0
13.09.2019 04:00:00 6,5 6,3 0,0
13.09.2019 03:00:00 6,6 6,3 0,0
13.09.2019 02:00:00 7,3 6,9 0,0
13.09.2019 01:00:00 8,4 7,9 0,0
13.09.2019 00:00:00 9,0 8,4 0,0
12.09.2019 23:00:00 10,1 8,4 0,0
12.09.2019 22:00:00 11,5 9,4 0,0
12.09.2019 21:00:00 14,1 10,4 0,0
12.09.2019 20:00:00 15,2 12,7 0,0
12.09.2019 19:00:00 16,4 14,5 0,0
12.09.2019 18:00:00 17,6 16,0 0,6
12.09.2019 17:00:00 16,7 16,3 0,4
12.09.2019 16:00:00 16,7 16,3 0,4
12.09.2019 15:00:00 16,6 16,0 0,2
12.09.2019 14:00:00 16,5 15,9 0,2
12.09.2019 13:00:00 16,5 16,1 1,6
12.09.2019 12:00:00 16,3 15,9 0,4
12.09.2019 11:00:00 14,9 14,6 2,0
12.09.2019 10:00:00 14,1 13,7 2,0
12.09.2019 09:00:00 14,3 13,5 0,0
12.09.2019 08:00:00 14,5 12,8 0,0
12.09.2019 07:00:00 13,8 12,5 0,0
12.09.2019 06:00:00 13,6 11,8 0,0
12.09.2019 05:00:00 14,0 12,5 0,0
12.09.2019 04:00:00 14,4 12,5 0,0

tt = temperature
td = dewpoint
rr = precipitation

Next stations